contact:dominique.lefevre@mio.osupytheas.fr, maurice.libes@osupytheas.fr, didier.mallarino@osupytheas.fr
Project:EMSO http://www.emso-fr.org/EMSO-France
Depth: 2436.0 m
Title:EMSO Ligure Ouest : Data MII capteur MICROCAT
DateTime_Computer,Latitude,Longitude,Temperature,Conductivity,Pressure,DateTime_Instrument
DateTime_Computer,Latitude,Longitude,degC,S m-1,dbar,DateTime_Instrument
2017-10-01T00:00:09Z,42.805,6.029,13.2958,4.59983,2471.889,2017-10-01T02:01:32Z
2017-10-01T00:01:43Z,42.805,6.029,13.2951,4.59980,2471.829,2017-10-01T02:03:07Z
2017-10-01T00:03:18Z,42.805,6.029,13.3016,4.59983,2471.852,2017-10-01T02:04:42Z
2017-10-01T00:04:53Z,42.805,6.029,13.2973,4.59999,2471.889,2017-10-01T02:06:17Z
2017-10-01T00:06:28Z,42.805,6.029,13.2970,4.59988,2471.866,2017-10-01T02:07:51Z
2017-10-01T00:08:03Z,42.805,6.029,13.2979,4.59981,2471.874,2017-10-01T02:09:26Z
2017-10-01T00:09:38Z,42.805,6.029,13.2967,4.59989,2471.866,2017-10-01T02:11:01Z
2017-10-01T00:11:12Z,42.805,6.029,13.2970,4.59983,2471.889,2017-10-01T02:12:36Z
2017-10-01T00:12:47Z,42.805,6.029,13.2968,4.59981,2471.889,2017-10-01T02:14:11Z
2017-10-01T00:14:22Z,42.805,6.029,13.2970,4.59988,2471.874,2017-10-01T02:15:46Z
2017-10-01T00:15:57Z,42.805,6.029,13.2987,4.60005,2471.866,2017-10-01T02:17:20Z
2017-10-01T00:17:32Z,42.805,6.029,13.2964,4.59990,2471.852,2017-10-01T02:18:55Z
2017-10-01T00:19:07Z,42.805,6.029,13.2965,4.59995,2471.866,2017-10-01T02:20:30Z
2017-10-01T00:20:41Z,42.805,6.029,13.2969,4.59987,2471.866,2017-10-01T02:22:05Z
2017-10-01T00:22:16Z,42.805,6.029,13.2970,4.59989,2471.889,2017-10-01T02:23:40Z
2017-10-01T00:23:51Z,42.805,6.029,13.2968,4.59989,2471.852,2017-10-01T02:25:15Z
2017-10-01T00:25:26Z,42.805,6.029,13.2968,4.60008,2471.844,2017-10-01T02:26:49Z
2017-10-01T00:27:01Z,42.805,6.029,13.2970,4.59986,2471.889,2017-10-01T02:28:24Z
2017-10-01T00:28:36Z,42.805,6.029,13.2973,4.59989,2471.889,2017-10-01T02:29:59Z
2017-10-01T00:30:10Z,42.805,6.029,13.2980,4.59984,2471.874,2017-10-01T02:31:34Z
2017-10-01T00:31:45Z,42.805,6.029,13.2979,4.59991,2471.866,2017-10-01T02:33:09Z
2017-10-01T00:33:20Z,42.805,6.029,13.2986,4.59994,2471.889,2017-10-01T02:34:44Z
2017-10-01T00:34:55Z,42.805,6.029,13.2974,4.59989,2471.866,2017-10-01T02:36:18Z
2017-10-01T00:36:30Z,42.805,6.029,13.2987,4.59981,2471.852,2017-10-01T02:37:53Z
2017-10-01T00:38:05Z,42.805,6.029,13.2958,4.59979,2471.866,2017-10-01T02:39:28Z
2017-10-01T00:39:39Z,42.805,6.029,13.2966,4.59981,2471.866,2017-10-01T02:41:03Z
2017-10-01T00:41:14Z,42.805,6.029,13.2965,4.59978,2471.889,2017-10-01T02:42:38Z
2017-10-01T00:42:49Z,42.805,6.029,13.2958,4.59984,2471.866,2017-10-01T02:44:13Z
2017-10-01T00:44:24Z,42.805,6.029,13.2965,4.59985,2471.889,2017-10-01T02:45:47Z
2017-10-01T00:45:59Z,42.805,6.029,13.2970,4.59994,2471.852,2017-10-01T02:47:22Z
2017-10-01T00:47:34Z,42.805,6.029,13.2961,4.59994,2471.912,2017-10-01T02:48:57Z
2017-10-01T00:49:08Z,42.805,6.029,13.3025,4.59989,2471.866,2017-10-01T02:50:32Z
2017-10-01T00:50:43Z,42.805,6.029,13.2966,4.59984,2471.889,2017-10-01T02:52:07Z
2017-10-01T00:52:18Z,42.805,6.029,13.2973,4.59982,2471.912,2017-10-01T02:53:42Z
2017-10-01T00:53:53Z,42.805,6.029,13.2971,4.59985,2471.866,2017-10-01T02:55:16Z
2017-10-01T00:55:28Z,42.805,6.029,13.2980,4.59986,2471.889,2017-10-01T02:56:51Z
2017-10-01T00:57:03Z,42.805,6.029,13.2970,4.59992,2471.889,2017-10-01T02:58:26Z
2017-10-01T00:58:37Z,42.805,6.029,13.2966,4.60003,2471.889,2017-10-01T03:00:01Z
2017-10-01T01:00:12Z,42.805,6.029,13.2968,4.59989,2471.889,2017-10-01T03:01:36Z
2017-10-01T01:01:47Z,42.805,6.029,13.2962,4.59992,2471.889,2017-10-01T03:03:10Z
2017-10-01T01:03:22Z,42.805,6.029,13.2979,4.59994,2471.866,2017-10-01T03:04:45Z
2017-10-01T01:04:57Z,42.805,6.029,13.2985,4.59983,2471.874,2017-10-01T03:06:20Z
2017-10-01T01:06:32Z,42.805,6.029,13.3009,4.59989,2471.889,2017-10-01T03:07:55Z
2017-10-01T01:08:06Z,42.805,6.029,13.2969,4.59997,2471.889,2017-10-01T03:09:30Z
2017-10-01T01:09:41Z,42.805,6.029,13.2969,4.59993,2471.889,2017-10-01T03:11:05Z
2017-10-01T01:11:16Z,42.805,6.029,13.2968,4.59993,2471.912,2017-10-01T03:12:39Z
2017-10-01T01:12:51Z,42.805,6.029,13.2998,4.59986,2471.889,2017-10-01T03:14:14Z
2017-10-01T01:14:26Z,42.805,6.029,13.2991,4.59992,2471.889,2017-10-01T03:15:49Z
2017-10-01T01:16:01Z,42.805,6.029,13.2985,4.59998,2471.889,2017-10-01T03:17:24Z
2017-10-01T01:17:35Z,42.805,6.029,13.2980,4.59992,2471.889,2017-10-01T03:18:59Z
2017-10-01T01:19:10Z,42.805,6.029,13.2987,4.59994,2471.912,2017-10-01T03:20:34Z
2017-10-01T01:20:45Z,42.805,6.029,13.2982,4.59986,2471.912,2017-10-01T03:22:08Z
2017-10-01T01:22:20Z,42.805,6.029,13.3011,4.59996,2471.889,2017-10-01T03:23:43Z
2017-10-01T01:23:55Z,42.805,6.029,13.2977,4.59992,2471.852,2017-10-01T03:25:18Z
2017-10-01T01:25:30Z,42.805,6.029,13.2985,4.59986,2471.889,2017-10-01T03:26:53Z
2017-10-01T01:27:04Z,42.805,6.029,13.2985,4.59989,2471.866,2017-10-01T03:28:28Z
2017-10-01T01:28:39Z,42.805,6.029,13.2983,4.59986,2471.874,2017-10-01T03:30:03Z
2017-10-01T01:30:14Z,42.805,6.029,13.2971,4.59999,2471.889,2017-10-01T03:31:37Z
2017-10-01T01:31:49Z,42.805,6.029,13.2966,4.60009,2471.912,2017-10-01T03:33:12Z
2017-10-01T01:33:24Z,42.805,6.029,13.2969,4.59989,2471.912,2017-10-01T03:34:47Z
2017-10-01T01:34:59Z,42.805,6.029,13.2977,4.59995,2471.912,2017-10-01T03:36:22Z
2017-10-01T01:36:33Z,42.805,6.029,13.2973,4.59996,2471.889,2017-10-01T03:37:57Z
2017-10-01T01:38:08Z,42.805,6.029,13.2981,4.59989,2471.934,2017-10-01T03:39:32Z
2017-10-01T01:39:43Z,42.805,6.029,13.2968,4.59991,2471.874,2017-10-01T03:41:06Z
2017-10-01T01:41:18Z,42.805,6.029,13.2968,4.59999,2471.912,2017-10-01T03:42:41Z
2017-10-01T01:42:53Z,42.805,6.029,13.2970,4.60003,2471.912,2017-10-01T03:44:16Z
2017-10-01T01:44:28Z,42.805,6.029,13.2968,4.59997,2471.912,2017-10-01T03:45:51Z
2017-10-01T01:46:02Z,42.805,6.029,13.2981,4.59997,2471.889,2017-10-01T03:47:26Z
2017-10-01T01:47:37Z,42.805,6.029,13.3010,4.60003,2471.912,2017-10-01T03:49:01Z
2017-10-01T01:49:12Z,42.805,6.029,13.2979,4.59992,2471.912,2017-10-01T03:50:35Z
2017-10-01T01:50:47Z,42.805,6.029,13.2988,4.60004,2471.889,2017-10-01T03:52:10Z
2017-10-01T01:52:22Z,42.805,6.029,13.2986,4.59990,2471.874,2017-10-01T03:53:45Z
2017-10-01T01:53:57Z,42.805,6.029,13.2977,4.59995,2471.912,2017-10-01T03:55:20Z
2017-10-01T01:55:31Z,42.805,6.029,13.2985,4.59995,2471.889,2017-10-01T03:56:55Z
2017-10-01T01:57:06Z,42.805,6.029,13.2987,4.59997,2471.874,2017-10-01T03:58:30Z
2017-10-01T01:58:41Z,42.805,6.029,13.2979,4.59992,2471.889,2017-10-01T04:00:04Z
2017-10-01T02:00:16Z,42.805,6.029,13.2976,4.59998,2471.889,2017-10-01T04:01:39Z
2017-10-01T02:01:51Z,42.805,6.029,13.2979,4.59990,2471.897,2017-10-01T04:03:14Z
2017-10-01T02:03:25Z,42.805,6.029,13.2973,4.59996,2471.912,2017-10-01T04:04:49Z
2017-10-01T02:05:00Z,42.805,6.029,13.2985,4.59990,2471.874,2017-10-01T04:06:24Z
2017-10-01T02:06:35Z,42.805,6.029,13.2979,4.60001,2471.912,2017-10-01T04:07:59Z
2017-10-01T02:08:10Z,42.805,6.029,13.2973,4.60009,2471.866,2017-10-01T04:09:33Z
2017-10-01T02:09:45Z,42.805,6.029,13.2975,4.59997,2471.934,2017-10-01T04:11:08Z
2017-10-01T02:11:20Z,42.805,6.029,13.2970,4.60006,2471.897,2017-10-01T04:12:43Z
2017-10-01T02:12:54Z,42.805,6.029,13.2979,4.60001,2471.912,2017-10-01T04:14:18Z
2017-10-01T02:14:29Z,42.805,6.029,13.2978,4.60016,2471.874,2017-10-01T04:15:53Z
2017-10-01T02:16:04Z,42.805,6.029,13.3016,4.60007,2471.912,2017-10-01T04:17:28Z
2017-10-01T02:17:39Z,42.805,6.029,13.2977,4.60010,2471.912,2017-10-01T04:19:02Z
2017-10-01T02:19:14Z,42.805,6.029,13.2973,4.60011,2471.912,2017-10-01T04:20:37Z
2017-10-01T02:20:49Z,42.805,6.029,13.3015,4.59992,2471.889,2017-10-01T04:22:12Z
2017-10-01T02:22:23Z,42.805,6.029,13.3006,4.59997,2471.897,2017-10-01T04:23:47Z
2017-10-01T02:23:58Z,42.805,6.029,13.2988,4.59989,2471.912,2017-10-01T04:25:22Z
2017-10-01T02:25:33Z,42.805,6.029,13.2970,4.59998,2471.934,2017-10-01T04:26:57Z
2017-10-01T02:27:08Z,42.805,6.029,13.2979,4.60009,2471.912,2017-10-01T04:28:31Z
2017-10-01T02:28:43Z,42.805,6.029,13.2984,4.60015,2471.912,2017-10-01T04:30:06Z
2017-10-01T02:30:18Z,42.805,6.029,13.2977,4.60006,2471.912,2017-10-01T04:31:41Z
2017-10-01T02:31:52Z,42.805,6.029,13.3008,4.60013,2471.912,2017-10-01T04:33:16Z
2017-10-01T02:33:27Z,42.805,6.029,13.2988,4.60003,2471.912,2017-10-01T04:34:51Z
2017-10-01T02:35:02Z,42.805,6.029,13.2988,4.60000,2471.934,2017-10-01T04:36:26Z
2017-10-01T02:36:37Z,42.805,6.029,13.2982,4.60009,2471.934,2017-10-01T04:38:00Z
2017-10-01T02:38:12Z,42.805,6.029,13.2978,4.59990,2471.912,2017-10-01T04:39:35Z
2017-10-01T02:39:47Z,42.805,6.029,13.2972,4.60009,2471.889,2017-10-01T04:41:10Z
2017-10-01T02:41:21Z,42.805,6.029,13.3002,4.60032,2471.934,2017-10-01T04:42:45Z
2017-10-01T02:42:56Z,42.805,6.029,13.2945,4.60017,2471.889,2017-10-01T04:44:20Z
2017-10-01T02:44:31Z,42.805,6.029,13.2957,4.60007,2471.912,2017-10-01T04:45:55Z
2017-10-01T02:46:06Z,42.805,6.029,13.2936,4.60028,2471.889,2017-10-01T04:47:29Z
2017-10-01T02:47:41Z,42.805,6.029,13.2940,4.59991,2471.912,2017-10-01T04:49:04Z
2017-10-01T02:49:16Z,42.805,6.029,13.2935,4.59990,2471.912,2017-10-01T04:50:39Z
2017-10-01T02:50:50Z,42.805,6.029,13.2984,4.60012,2471.897,2017-10-01T04:52:14Z
2017-10-01T02:52:25Z,42.805,6.029,13.2996,4.60005,2471.897,2017-10-01T04:53:49Z
2017-10-01T02:54:00Z,42.805,6.029,13.2945,4.60005,2471.912,2017-10-01T04:55:24Z
2017-10-01T02:55:35Z,42.805,6.029,13.2957,4.60001,2471.912,2017-10-01T04:56:58Z
2017-10-01T02:57:10Z,42.805,6.029,13.2943,4.60025,2471.912,2017-10-01T04:58:33Z
2017-10-01T02:58:45Z,42.805,6.029,13.2945,4.60020,2471.874,2017-10-01T05:00:08Z
2017-10-01T03:00:19Z,42.805,6.029,13.2939,4.59995,2471.919,2017-10-01T05:01:43Z
2017-10-01T03:01:54Z,42.805,6.029,13.2957,4.59990,2471.912,2017-10-01T05:03:18Z
2017-10-01T03:03:29Z,42.805,6.029,13.2948,4.59979,2471.912,2017-10-01T05:04:53Z
2017-10-01T03:05:04Z,42.805,6.029,13.2948,4.60018,2471.934,2017-10-01T05:06:27Z
2017-10-01T03:06:39Z,42.805,6.029,13.2938,4.60011,2471.942,2017-10-01T05:08:02Z
2017-10-01T03:08:14Z,42.805,6.029,13.2939,4.59989,2471.934,2017-10-01T05:09:37Z
2017-10-01T03:09:48Z,42.805,6.029,13.2957,4.59995,2471.912,2017-10-01T05:11:12Z
2017-10-01T03:11:23Z,42.805,6.029,13.2937,4.60007,2471.897,2017-10-01T05:12:47Z
2017-10-01T03:12:58Z,42.805,6.029,13.2936,4.59978,2471.912,2017-10-01T05:14:21Z
2017-10-01T03:14:33Z,42.805,6.029,13.2940,4.59978,2471.934,2017-10-01T05:15:56Z
2017-10-01T03:16:08Z,42.805,6.029,13.2938,4.59996,2471.949,2017-10-01T05:17:31Z
2017-10-01T03:17:43Z,42.805,6.029,13.2940,4.59978,2471.957,2017-10-01T05:19:06Z
2017-10-01T03:19:17Z,42.805,6.029,13.2934,4.59973,2471.934,2017-10-01T05:20:41Z
2017-10-01T03:20:52Z,42.805,6.029,13.2935,4.59967,2471.934,2017-10-01T05:22:16Z
2017-10-01T03:22:27Z,42.805,6.029,13.2940,4.59970,2471.897,2017-10-01T05:23:50Z
2017-10-01T03:24:02Z,42.805,6.029,13.2936,4.59971,2471.897,2017-10-01T05:25:25Z
2017-10-01T03:25:37Z,42.805,6.029,13.2937,4.59970,2471.919,2017-10-01T05:27:00Z
2017-10-01T03:27:12Z,42.805,6.029,13.2940,4.59974,2471.912,2017-10-01T05:28:35Z
2017-10-01T03:28:46Z,42.805,6.029,13.2940,4.59977,2471.919,2017-10-01T05:30:10Z
2017-10-01T03:30:21Z,42.805,6.029,13.2935,4.59967,2471.934,2017-10-01T05:31:45Z
2017-10-01T03:31:56Z,42.805,6.029,13.2939,4.59969,2471.934,2017-10-01T05:33:19Z
2017-10-01T03:33:31Z,42.805,6.029,13.2940,4.59965,2471.934,2017-10-01T05:34:54Z
2017-10-01T03:35:06Z,42.805,6.029,13.2939,4.59967,2471.942,2017-10-01T05:36:29Z
2017-10-01T03:36:41Z,42.805,6.029,13.2936,4.59966,2471.934,2017-10-01T05:38:04Z
2017-10-01T03:38:15Z,42.805,6.029,13.2936,4.59969,2471.897,2017-10-01T05:39:39Z
2017-10-01T03:39:50Z,42.805,6.029,13.2935,4.59974,2471.934,2017-10-01T05:41:14Z
2017-10-01T03:41:25Z,42.805,6.029,13.2937,4.59974,2471.897,2017-10-01T05:42:48Z
2017-10-01T03:43:00Z,42.805,6.029,13.2936,4.59971,2471.934,2017-10-01T05:44:23Z
2017-10-01T03:44:35Z,42.805,6.029,13.2938,4.59981,2471.934,2017-10-01T05:45:58Z
2017-10-01T03:46:10Z,42.805,6.029,13.2938,4.59982,2471.957,2017-10-01T05:47:33Z
2017-10-01T03:47:44Z,42.805,6.029,13.2937,4.59970,2471.934,2017-10-01T05:49:08Z
2017-10-01T03:49:19Z,42.805,6.029,13.2940,4.59986,2471.919,2017-10-01T05:50:43Z
2017-10-01T03:50:54Z,42.805,6.029,13.2936,4.59973,2471.919,2017-10-01T05:52:17Z
2017-10-01T03:52:29Z,42.805,6.029,13.2936,4.59970,2471.957,2017-10-01T05:53:52Z
2017-10-01T03:54:04Z,42.805,6.029,13.2937,4.59973,2471.897,2017-10-01T05:55:27Z
2017-10-01T03:55:38Z,42.805,6.029,13.2940,4.59980,2471.957,2017-10-01T05:57:02Z
2017-10-01T03:57:13Z,42.805,6.029,13.2938,4.59990,2471.934,2017-10-01T05:58:37Z
2017-10-01T03:58:48Z,42.805,6.029,13.2946,4.60015,2471.934,2017-10-01T06:00:12Z
2017-10-01T04:00:23Z,42.805,6.029,13.2943,4.60002,2471.957,2017-10-01T06:01:46Z
2017-10-01T04:01:58Z,42.805,6.029,13.2934,4.59988,2471.934,2017-10-01T06:03:21Z
2017-10-01T04:03:33Z,42.805,6.029,13.2937,4.59969,2471.957,2017-10-01T06:04:56Z
2017-10-01T04:05:07Z,42.805,6.029,13.2935,4.59972,2471.897,2017-10-01T06:06:31Z
2017-10-01T04:06:42Z,42.805,6.029,13.2937,4.59977,2471.919,2017-10-01T06:08:06Z
2017-10-01T04:08:17Z,42.805,6.029,13.2934,4.59974,2471.942,2017-10-01T06:09:41Z
2017-10-01T04:09:52Z,42.805,6.029,13.2933,4.59974,2471.934,2017-10-01T06:11:15Z
2017-10-01T04:11:27Z,42.805,6.029,13.2936,4.59978,2471.957,2017-10-01T06:12:50Z
2017-10-01T04:13:02Z,42.805,6.029,13.2932,4.59974,2471.957,2017-10-01T06:14:25Z
2017-10-01T04:14:36Z,42.805,6.029,13.2938,4.59978,2471.957,2017-10-01T06:16:00Z
2017-10-01T04:16:11Z,42.805,6.029,13.2939,4.59976,2471.934,2017-10-01T06:17:35Z
2017-10-01T04:17:46Z,42.805,6.029,13.2933,4.59968,2471.934,2017-10-01T06:19:10Z
2017-10-01T04:19:21Z,42.805,6.029,13.2935,4.59969,2471.934,2017-10-01T06:20:44Z
2017-10-01T04:20:56Z,42.805,6.029,13.2935,4.59967,2471.934,2017-10-01T06:22:19Z
2017-10-01T04:22:31Z,42.805,6.029,13.2940,4.59965,2471.934,2017-10-01T06:23:54Z
2017-10-01T04:24:05Z,42.805,6.029,13.2934,4.59966,2471.957,2017-10-01T06:25:29Z
2017-10-01T04:25:40Z,42.805,6.029,13.2936,4.59967,2471.919,2017-10-01T06:27:04Z
2017-10-01T04:27:15Z,42.805,6.029,13.2938,4.59964,2471.934,2017-10-01T06:28:39Z
2017-10-01T04:28:50Z,42.805,6.029,13.2933,4.59964,2471.957,2017-10-01T06:30:13Z
2017-10-01T04:30:25Z,42.805,6.029,13.2935,4.59965,2471.934,2017-10-01T06:31:48Z
2017-10-01T04:32:00Z,42.805,6.029,13.2939,4.59965,2471.934,2017-10-01T06:33:23Z
2017-10-01T04:33:34Z,42.805,6.029,13.2935,4.59967,2471.919,2017-10-01T06:34:58Z
2017-10-01T04:35:09Z,42.805,6.029,13.2940,4.59967,2471.934,2017-10-01T06:36:33Z
2017-10-01T04:36:44Z,42.805,6.029,13.2936,4.59967,2471.934,2017-10-01T06:38:08Z
2017-10-01T04:38:19Z,42.805,6.029,13.2942,4.59967,2471.897,2017-10-01T06:39:42Z
2017-10-01T04:39:54Z,42.805,6.029,13.2938,4.59965,2471.919,2017-10-01T06:41:17Z
2017-10-01T04:41:29Z,42.805,6.029,13.2934,4.59967,2471.957,2017-10-01T06:42:52Z
2017-10-01T04:43:03Z,42.805,6.029,13.2935,4.59964,2471.942,2017-10-01T06:44:27Z
2017-10-01T04:44:38Z,42.805,6.029,13.2940,4.59964,2471.897,2017-10-01T06:46:02Z
2017-10-01T04:46:13Z,42.805,6.029,13.2939,4.59964,2471.957,2017-10-01T06:47:36Z
2017-10-01T04:47:48Z,42.805,6.029,13.2940,4.59964,2471.897,2017-10-01T06:49:11Z
2017-10-01T04:49:23Z,42.805,6.029,13.2939,4.59964,2471.957,2017-10-01T06:50:46Z
2017-10-01T04:50:58Z,42.805,6.029,13.2940,4.59964,2471.957,2017-10-01T06:52:21Z
2017-10-01T04:52:32Z,42.805,6.029,13.2935,4.59965,2471.934,2017-10-01T06:53:56Z
2017-10-01T04:54:07Z,42.805,6.029,13.2940,4.59972,2471.957,2017-10-01T06:55:31Z
2017-10-01T04:55:42Z,42.805,6.029,13.2936,4.59967,2471.919,2017-10-01T06:57:06Z
2017-10-01T04:57:17Z,42.805,6.029,13.2937,4.59965,2471.942,2017-10-01T06:58:40Z
2017-10-01T04:58:52Z,42.805,6.029,13.2935,4.59965,2471.919,2017-10-01T07:00:15Z
2017-10-01T05:00:27Z,42.805,6.029,13.2933,4.59964,2471.957,2017-10-01T07:01:50Z
2017-10-01T05:02:01Z,42.805,6.029,13.2934,4.59967,2471.934,2017-10-01T07:03:25Z
2017-10-01T05:03:36Z,42.805,6.029,13.2935,4.59965,2471.934,2017-10-01T07:05:00Z
2017-10-01T05:05:11Z,42.805,6.029,13.2939,4.59967,2471.934,2017-10-01T07:06:34Z
2017-10-01T05:06:46Z,42.805,6.029,13.2936,4.59968,2471.874,2017-10-01T07:08:09Z
2017-10-01T05:08:21Z,42.805,6.029,13.2932,4.59967,2471.912,2017-10-01T07:09:44Z
2017-10-01T05:09:56Z,42.805,6.029,13.2935,4.59970,2471.934,2017-10-01T07:11:19Z
2017-10-01T05:11:30Z,42.805,6.029,13.2938,4.59967,2471.919,2017-10-01T07:12:54Z
2017-10-01T05:13:05Z,42.805,6.029,13.2933,4.59966,2471.919,2017-10-01T07:14:29Z
2017-10-01T05:14:40Z,42.805,6.029,13.2933,4.59964,2471.942,2017-10-01T07:16:03Z
2017-10-01T05:16:15Z,42.805,6.029,13.2933,4.59965,2471.957,2017-10-01T07:17:38Z
2017-10-01T05:17:50Z,42.805,6.029,13.2936,4.59965,2471.934,2017-10-01T07:19:13Z
2017-10-01T05:19:25Z,42.805,6.029,13.2937,4.59964,2471.934,2017-10-01T07:20:48Z
2017-10-01T05:20:59Z,42.805,6.029,13.2937,4.59964,2471.957,2017-10-01T07:22:23Z
2017-10-01T05:22:34Z,42.805,6.029,13.2935,4.59966,2471.897,2017-10-01T07:23:58Z
2017-10-01T05:24:09Z,42.805,6.029,13.2935,4.59967,2471.897,2017-10-01T07:25:32Z
2017-10-01T05:25:44Z,42.805,6.029,13.2935,4.59970,2471.919,2017-10-01T07:27:07Z
2017-10-01T05:27:19Z,42.805,6.029,13.2937,4.59972,2471.912,2017-10-01T07:28:42Z
2017-10-01T05:28:53Z,42.805,6.029,13.2937,4.59967,2471.934,2017-10-01T07:30:17Z
2017-10-01T05:30:28Z,42.805,6.029,13.2936,4.59973,2471.957,2017-10-01T07:31:52Z
2017-10-01T05:32:03Z,42.805,6.029,13.2935,4.59969,2471.897,2017-10-01T07:33:27Z
2017-10-01T05:33:38Z,42.805,6.029,13.2935,4.59965,2471.919,2017-10-01T07:35:01Z
2017-10-01T05:35:13Z,42.805,6.029,13.2933,4.59964,2471.919,2017-10-01T07:36:36Z
2017-10-01T05:36:48Z,42.805,6.029,13.2933,4.59964,2471.957,2017-10-01T07:38:11Z
2017-10-01T05:38:22Z,42.805,6.029,13.2937,4.59964,2471.934,2017-10-01T07:39:46Z
2017-10-01T05:39:57Z,42.805,6.029,13.2933,4.59970,2471.934,2017-10-01T07:41:21Z
2017-10-01T05:41:32Z,42.805,6.029,13.2933,4.59970,2471.934,2017-10-01T07:42:56Z
2017-10-01T05:43:07Z,42.805,6.029,13.2937,4.59964,2471.957,2017-10-01T07:44:30Z
2017-10-01T05:44:42Z,42.805,6.029,13.2937,4.59964,2471.912,2017-10-01T07:46:05Z
2017-10-01T05:46:17Z,42.805,6.029,13.2936,4.59966,2471.942,2017-10-01T07:47:40Z
2017-10-01T05:47:51Z,42.805,6.029,13.2937,4.59964,2471.957,2017-10-01T07:49:15Z
2017-10-01T05:49:26Z,42.805,6.029,13.2933,4.59967,2471.957,2017-10-01T07:50:50Z
2017-10-01T05:51:01Z,42.805,6.029,13.2937,4.59966,2471.912,2017-10-01T07:52:25Z
2017-10-01T05:52:36Z,42.805,6.029,13.2936,4.59972,2471.934,2017-10-01T07:53:59Z
2017-10-01T05:54:11Z,42.805,6.029,13.2935,4.59965,2471.919,2017-10-01T07:55:34Z
2017-10-01T05:55:46Z,42.805,6.029,13.2933,4.59966,2471.934,2017-10-01T07:57:09Z
2017-10-01T05:57:20Z,42.805,6.029,13.2935,4.59967,2471.897,2017-10-01T07:58:44Z
2017-10-01T05:58:55Z,42.805,6.029,13.2940,4.59964,2471.912,2017-10-01T08:00:19Z
2017-10-01T06:00:30Z,42.805,6.029,13.2933,4.59972,2471.934,2017-10-01T08:01:54Z
2017-10-01T06:02:05Z,42.805,6.029,13.2933,4.59967,2471.934,2017-10-01T08:03:28Z
2017-10-01T06:03:40Z,42.805,6.029,13.2935,4.59968,2471.919,2017-10-01T08:05:03Z
2017-10-01T06:05:15Z,42.805,6.029,13.2937,4.59967,2471.934,2017-10-01T08:06:38Z
2017-10-01T06:06:49Z,42.805,6.029,13.2934,4.59968,2471.934,2017-10-01T08:08:13Z
2017-10-01T06:08:24Z,42.805,6.029,13.2935,4.59969,2471.934,2017-10-01T08:09:48Z
2017-10-01T06:09:59Z,42.805,6.029,13.2939,4.59968,2471.897,2017-10-01T08:11:23Z
2017-10-01T06:11:34Z,42.805,6.029,13.2935,4.59965,2471.912,2017-10-01T08:12:57Z
2017-10-01T06:13:09Z,42.805,6.029,13.2937,4.59964,2471.927,2017-10-01T08:14:32Z
2017-10-01T06:14:44Z,42.805,6.029,13.2935,4.59967,2471.912,2017-10-01T08:16:07Z
2017-10-01T06:16:18Z,42.805,6.029,13.2932,4.59965,2471.934,2017-10-01T08:17:42Z
2017-10-01T06:17:53Z,42.805,6.029,13.2937,4.59964,2471.934,2017-10-01T08:19:17Z
2017-10-01T06:19:28Z,42.805,6.029,13.2938,4.59965,2471.934,2017-10-01T08:20:52Z
2017-10-01T06:21:03Z,42.805,6.029,13.2938,4.59965,2471.934,2017-10-01T08:22:26Z
2017-10-01T06:22:38Z,42.805,6.029,13.2937,4.59965,2471.957,2017-10-01T08:24:01Z
2017-10-01T06:24:13Z,42.805,6.029,13.2939,4.59964,2471.912,2017-10-01T08:25:36Z
2017-10-01T06:25:47Z,42.805,6.029,13.2935,4.59964,2471.934,2017-10-01T08:27:11Z
2017-10-01T06:27:22Z,42.805,6.029,13.2935,4.59964,2471.912,2017-10-01T08:28:46Z
2017-10-01T06:28:57Z,42.805,6.029,13.2937,4.59965,2471.912,2017-10-01T08:30:20Z
2017-10-01T06:30:32Z,42.805,6.029,13.2937,4.59966,2471.919,2017-10-01T08:31:55Z
2017-10-01T06:32:07Z,42.805,6.029,13.2935,4.59965,2471.919,2017-10-01T08:33:30Z
2017-10-01T06:33:42Z,42.805,6.029,13.2935,4.59967,2471.912,2017-10-01T08:35:05Z
2017-10-01T06:35:16Z,42.805,6.029,13.2933,4.59968,2471.934,2017-10-01T08:36:40Z
2017-10-01T06:36:51Z,42.805,6.029,13.2933,4.59964,2471.912,2017-10-01T08:38:15Z
2017-10-01T06:38:26Z,42.805,6.029,13.2935,4.59965,2471.889,2017-10-01T08:39:50Z
2017-10-01T06:40:01Z,42.805,6.029,13.2935,4.59967,2471.889,2017-10-01T08:41:24Z
2017-10-01T06:41:36Z,42.805,6.029,13.2936,4.59964,2471.934,2017-10-01T08:42:59Z
2017-10-01T06:43:11Z,42.805,6.029,13.2934,4.59966,2471.934,2017-10-01T08:44:34Z
2017-10-01T06:44:45Z,42.805,6.029,13.2937,4.59970,2471.897,2017-10-01T08:46:09Z
2017-10-01T06:46:20Z,42.805,6.029,13.2934,4.59970,2471.934,2017-10-01T08:47:44Z
2017-10-01T06:47:55Z,42.805,6.029,13.2934,4.59969,2471.934,2017-10-01T08:49:18Z
2017-10-01T06:49:30Z,42.805,6.029,13.2932,4.59967,2471.912,2017-10-01T08:50:53Z
2017-10-01T06:51:05Z,42.805,6.029,13.2936,4.59965,2471.934,2017-10-01T08:52:28Z
2017-10-01T06:52:40Z,42.805,6.029,13.2935,4.59966,2471.934,2017-10-01T08:54:03Z
2017-10-01T06:54:14Z,42.805,6.029,13.2938,4.59970,2471.919,2017-10-01T08:55:38Z
2017-10-01T06:55:49Z,42.805,6.029,13.2934,4.59964,2471.912,2017-10-01T08:57:13Z
2017-10-01T06:57:24Z,42.805,6.029,13.2936,4.59964,2471.897,2017-10-01T08:58:47Z
2017-10-01T06:58:59Z,42.805,6.029,13.2937,4.59964,2471.934,2017-10-01T09:00:22Z
2017-10-01T07:00:34Z,42.805,6.029,13.2938,4.59963,2471.912,2017-10-01T09:01:57Z
2017-10-01T07:02:08Z,42.805,6.029,13.2935,4.59968,2471.934,2017-10-01T09:03:32Z
2017-10-01T07:03:43Z,42.805,6.029,13.2941,4.59962,2471.919,2017-10-01T09:05:07Z
2017-10-01T07:05:18Z,42.805,6.029,13.2937,4.59967,2471.919,2017-10-01T09:06:42Z
2017-10-01T07:06:53Z,42.805,6.029,13.2938,4.59966,2471.912,2017-10-01T09:08:16Z
2017-10-01T07:08:28Z,42.805,6.029,13.2939,4.59965,2471.934,2017-10-01T09:09:51Z
2017-10-01T07:10:03Z,42.805,6.029,13.2942,4.59965,2471.912,2017-10-01T09:11:26Z
2017-10-01T07:11:37Z,42.805,6.029,13.2940,4.59969,2471.912,2017-10-01T09:13:01Z
2017-10-01T07:13:12Z,42.805,6.029,13.2935,4.59964,2471.912,2017-10-01T09:14:36Z
2017-10-01T07:14:47Z,42.805,6.029,13.2937,4.59970,2471.897,2017-10-01T09:16:11Z
2017-10-01T07:16:22Z,42.805,6.029,13.2933,4.59969,2471.934,2017-10-01T09:17:45Z
2017-10-01T07:17:57Z,42.805,6.029,13.2958,4.59973,2471.934,2017-10-01T09:19:20Z
2017-10-01T07:19:32Z,42.805,6.029,13.2938,4.59975,2471.874,2017-10-01T09:20:55Z
2017-10-01T07:21:06Z,42.805,6.029,13.2941,4.59973,2471.889,2017-10-01T09:22:30Z
2017-10-01T07:22:41Z,42.805,6.029,13.2937,4.59970,2471.912,2017-10-01T09:24:05Z
2017-10-01T07:24:16Z,42.805,6.029,13.2934,4.59972,2471.934,2017-10-01T09:25:40Z
2017-10-01T07:25:51Z,42.805,6.029,13.2938,4.59969,2471.912,2017-10-01T09:27:14Z
2017-10-01T07:27:26Z,42.805,6.029,13.2943,4.59965,2471.912,2017-10-01T09:28:49Z
2017-10-01T07:29:01Z,42.805,6.029,13.2943,4.59963,2471.889,2017-10-01T09:30:24Z
2017-10-01T07:30:35Z,42.805,6.029,13.2938,4.59970,2471.912,2017-10-01T09:31:59Z
2017-10-01T07:32:10Z,42.805,6.029,13.2941,4.59963,2471.889,2017-10-01T09:33:34Z
2017-10-01T07:33:45Z,42.805,6.029,13.2939,4.59964,2471.912,2017-10-01T09:35:09Z
2017-10-01T07:35:20Z,42.805,6.029,13.2941,4.59963,2471.919,2017-10-01T09:36:43Z
2017-10-01T07:36:55Z,42.805,6.029,13.2939,4.59962,2471.912,2017-10-01T09:38:18Z
2017-10-01T07:38:30Z,42.805,6.029,13.2940,4.59962,2471.889,2017-10-01T09:39:53Z
2017-10-01T07:40:04Z,42.805,6.029,13.2938,4.59962,2471.889,2017-10-01T09:41:28Z
2017-10-01T07:41:39Z,42.805,6.029,13.2940,4.59963,2471.874,2017-10-01T09:43:03Z
2017-10-01T07:43:14Z,42.805,6.029,13.2938,4.59962,2471.912,2017-10-01T09:44:38Z
2017-10-01T07:44:49Z,42.805,6.029,13.2933,4.59962,2471.874,2017-10-01T09:46:12Z